{"data":{"norad_id":58426,"epoch":"2026-09-21T18:21:01.569600Z","epoch_age_seconds":132833,"freshness":"FRESH","line1":"1 58426U 23181B   26264.76460150 -.00000080  00000+0  85922-4 0  9997","line2":"2 58426  49.9605 332.6297 0011893 204.8275 155.2031 13.41499203138704","mean_motion":13.41499203,"eccentricity":0.0011893,"inclination_deg":49.9605,"raan_deg":332.6297,"arg_perigee_deg":204.8275,"mean_anomaly_deg":155.2031,"bstar":8.5922e-5,"rev_number":13870,"period_min":107.34259079541,"perigee_km":1094.8016151523,"apogee_km":1112.5979120783,"semimajor_km":7481.8367636153,"source":"CELESTRAK","updated_at":"2026-09-22T09:00:26.634634Z"}}